Hourly Data Report for October 05, 2018

CARBERRY CS
MANITOBA
Current Station Operator: ECCC - MSC

49°54'20.900" N
99°21'26.800" W
383.50 m
5010547
71170
WZE

Download Data

Hourly Data (October 2018)
Hourly Data Report for October 5, 2018
TIME
LST
Temp Definition
°C
Dew Point Definition
°C
Rel Hum Definition
%
Precip. Amount Definition
mm

Wind Dir Definition
10's deg

Wind Spd Definition
km/h
Visibility Definition
km
Stn Press Definition
kPa
Hmdx Definition


Wind Chill Definition


Weather Definition


00:00 1.4 -0.6 87 0.0 14 10   97.37     LegendNANA
01:00 1.4 -0.1 89 0.0 15 8   97.33     LegendNANA
02:00 1.3 -0.2 90 0.0 15 11   97.29     LegendNANA
03:00 0.7 0.0 95 0.0 11 3   97.26     LegendNANA
04:00 0.5 0.0 97 0.0 7 4   97.22     LegendNANA
05:00 0.4 0.2 99 0.0 7 7   97.18     LegendNANA
06:00 0.4 0.2 99 0.2 6 10   97.17     LegendNANA
07:00 0.3 0.2 99 0.0 7 10   97.16     LegendNANA
08:00 0.2 0.1 99 0.7 6 10   97.13     LegendNANA
09:00 0.2 0.1 99 0.8 6 12   97.14     LegendNANA
10:00 0.3 0.1 99 0.8 6 13   97.13     LegendNANA
11:00 0.5 0.2 98 0.9 5 10   97.12     LegendNANA
12:00 0.7 0.1 96 0.5 6 14   97.09     LegendNANA
13:00 0.7 0.0 95 0.6 5 13   97.08     LegendNANA
14:00 0.5 -0.1 96 0.2 5 14   97.07     LegendNANA
15:00 0.6 0.1 97 0.5 4 11   97.08     LegendNANA
16:00 0.8 0.2 96 0.2 3 9   97.11     LegendNANA
17:00 0.4 0.0 97 0.2 3 11   97.11     LegendNANA
18:00 0.3 0.1 99 0.0 1 7   97.17     LegendNANA
19:00 0.1 0.0 99 0.2 36 6   97.24     LegendNANA
20:00 0.0 -0.4 98 0.0 36 9   97.27   -3 LegendNANA
21:00 -0.2 -0.8 96 0.0 1 8   97.32   -3 LegendNANA
22:00 -0.1 -1.0 94 0.0 35 5   97.34   -2 LegendNANA
23:00 -0.3 -0.9 96 0.0 30 7   97.37   -3 LegendNANA

Notes on Data Quality.

Legend

  • E = Estimated
  • M = Missing
  • NA = Not Available*
  • [empty] = Indicates an unobserved value
Date modified: